Weather reports worldwide

Advertisment
Viterbo, Italy (16216): temperature & dewpoint: 01.08.2020 03:00:00 - 07.08.2020 03:00:00 (CEST)Viterbo, Italy (16216): wind speed: 01.08.2020 03:00:00 - 07.08.2020 03:00:00 (CEST)Viterbo, Italy (16216): wind direction: 01.08.2020 03:00:00 - 07.08.2020 03:00:00 (CEST)Viterbo, Italy (16216): reduced air pressure: 01.08.2020 03:00:00 - 07.08.2020 03:00:00 (CEST)Viterbo, Italy (16216): visibility: 01.08.2020 03:00:00 - 07.08.2020 03:00:00 (CEST)Viterbo, Italy (16216): sunshine duration: 01.08.2020 03:00:00 - 07.08.2020 03:00:00 (CEST)
Date & Time tt [°C] td [°C] ff [km/h] ff [kn] dd ppp [hPa] vv [km] sd [min]
07.08.2020 03:00:00 - - - - - - - -
07.08.2020 02:00:00 - - - - - - - -
07.08.2020 01:00:00 - - - - - - - -
07.08.2020 00:00:00 - - - - - - - -
06.08.2020 23:00:00 - - - - - - - -
06.08.2020 22:00:00 - - - - - - - -
06.08.2020 21:00:00 25,0 14,0 28 15 NNE - 10 -
06.08.2020 20:00:00 26,6 14,7 26 14 NNE 1011,8 20 60
06.08.2020 19:00:00 28,0 15,0 26 14 NNE - 10 -
06.08.2020 18:00:00 28,0 14,0 24 13 NNE - 10 -
06.08.2020 17:00:00 29,0 14,0 21 11 N 1011,1 20 60
06.08.2020 16:00:00 29,0 14,0 24 13 NNE - 10 -
06.08.2020 15:00:00 29,0 14,0 21 11 N - 10 -
06.08.2020 14:00:00 28,0 16,0 21 11 NE 1011,9 20 60
06.08.2020 13:00:00 27,0 16,0 26 14 NE - 10 -
06.08.2020 12:00:00 26,0 16,0 28 15 NNE - 10 -
06.08.2020 11:00:00 24,8 16,2 29 16 NNE 1012,1 20 60
06.08.2020 10:00:00 23,0 16,0 22 12 NNE - 10 -
06.08.2020 09:00:00 22,0 16,0 22 12 NE - 10 -
06.08.2020 08:00:00 20,4 15,6 22 12 NE 1012,4 20 60
06.08.2020 07:00:00 18,0 17,0 15 8 NE - 10 -
06.08.2020 06:00:00 - - - - - - - -
06.08.2020 05:00:00 - - - - - - - -
06.08.2020 04:00:00 - - - - - - - -
06.08.2020 03:00:00 - - - - - - - -
06.08.2020 02:00:00 - - - - - - - -
06.08.2020 01:00:00 - - - - - - - -
06.08.2020 00:00:00 - - - - - - - -
05.08.2020 23:00:00 - - - - - - - -
05.08.2020 22:00:00 - - - - - - - -
05.08.2020 21:00:00 - - - - - - - -
05.08.2020 20:00:00 24,0 13,0 26 14 NE 1009,1 20 60
05.08.2020 19:00:00 25,0 13,0 29 16 NNE - 10 -
05.08.2020 18:00:00 25,0 12,0 31 17 NNE - 10 -
05.08.2020 17:00:00 25,4 13,3 29 16 NE 1008,6 20 60
05.08.2020 16:00:00 26,0 12,0 29 16 N - 10 -
05.08.2020 15:00:00 27,0 11,0 24 13 NNE - 10 -
05.08.2020 14:00:00 26,4 12,5 22 12 NE 1008,5 20 60
05.08.2020 13:00:00 26,0 13,0 24 13 ENE - 10 -
05.08.2020 12:00:00 24,0 13,0 31 17 NE - 10 -
05.08.2020 11:00:00 22,6 13,4 22 12 NNE 1008,0 20 60
05.08.2020 10:00:00 22,0 14,0 22 12 NE - 10 -
05.08.2020 09:00:00 19,0 15,0 21 11 NE - 10 -
05.08.2020 08:00:00 17,6 14,5 16 9 NE 1007,7 20 60
05.08.2020 07:00:00 17,0 15,0 15 8 NE - 10 -
05.08.2020 06:00:00 - - - - - - - -
05.08.2020 05:00:00 - - - - - - - -
05.08.2020 04:00:00 - - - - - - - -
05.08.2020 03:00:00 - - - - - - - -
05.08.2020 02:00:00 - - - - - - - -
05.08.2020 01:00:00 - - - - - - - -
05.08.2020 00:00:00 - - - - - - - -
04.08.2020 23:00:00 - - - - - - - -
04.08.2020 22:00:00 - - - - - - - -
04.08.2020 21:00:00 22,0 11,0 16 9 W - 10 -
04.08.2020 20:00:00 23,0 11,1 16 9 W 1005,0 20 24
04.08.2020 19:00:00 25,0 9,0 26 14 WSW - 10 -
04.08.2020 18:00:00 27,0 8,0 29 16 W - 10 -
04.08.2020 17:00:00 26,2 8,2 28 15 W 1004,1 25 24
04.08.2020 16:00:00 28,0 10,0 18 10 W - 10 -
04.08.2020 15:00:00 28,0 9,0 26 14 WSW - 10 -
04.08.2020 14:00:00 27,4 10,6 28 15 WSW 1003,3 25 60
04.08.2020 13:00:00 28,0 13,0 34 18 WSW - 10 -
04.08.2020 12:00:00 26,0 14,0 18 10 S - 10 -
04.08.2020 11:00:00 25,0 15,1 16 9 S 1003,5 20 60
04.08.2020 10:00:00 24,0 15,0 15 8 SSW - 10 -
04.08.2020 09:00:00 22,0 16,0 22 12 S - 10 -
04.08.2020 08:00:00 21,2 16,4 16 9 S 1003,8 20 42
04.08.2020 07:00:00 21,0 17,0 16 9 S - 10 -
04.08.2020 06:00:00 - - - - - - - -
04.08.2020 05:00:00 - - - - - - - -
04.08.2020 04:00:00 - - - - - - - -
04.08.2020 03:00:00 - - - - - - - -
04.08.2020 02:00:00 - - - - - - - -
04.08.2020 01:00:00 - - - - - - - -
04.08.2020 00:00:00 - - - - - - - -
03.08.2020 23:00:00 - - - - - - - -
03.08.2020 22:00:00 - - - - - - - -
03.08.2020 21:00:00 24,0 20,0 18 10 SSW - 10 -
03.08.2020 20:00:00 25,8 21,9 22 12 SW 1004,2 16 48
03.08.2020 19:00:00 27,0 20,0 28 15 SW - 10 -
03.08.2020 18:00:00 28,0 22,0 22 12 SW - 10 -
03.08.2020 17:00:00 28,8 22,3 24 13 SW 1004,6 20 60
03.08.2020 16:00:00 28,0 19,0 34 18 S - 10 -
03.08.2020 15:00:00 31,0 19,0 34 18 SSW - 10 -
03.08.2020 14:00:00 30,4 20,7 28 15 SSW 1006,1 20 60
03.08.2020 13:00:00 31,0 20,0 26 14 SSW - 10 -
03.08.2020 12:00:00 30,0 21,0 26 14 SSW - 10 -
03.08.2020 11:00:00 29,6 21,0 26 14 SSW 1006,6 16 60
03.08.2020 10:00:00 28,0 22,0 29 16 S - 10 -
03.08.2020 09:00:00 27,0 21,0 21 11 S - 10 -
03.08.2020 08:00:00 23,4 21,1 5 3 ESE 1008,2 16 18
03.08.2020 07:00:00 23,0 21,0 8 4 N - 10 -
03.08.2020 06:00:00 - - - - - - - -
03.08.2020 05:00:00 - - - - - - - -
03.08.2020 04:00:00 - - - - - - - -
03.08.2020 03:00:00 - - - - - - - -
03.08.2020 02:00:00 - - - - - - - -
03.08.2020 01:00:00 - - - - - - - -
03.08.2020 00:00:00 - - - - - - - -
02.08.2020 23:00:00 - - - - - - - -
02.08.2020 22:00:00 - - - - - - - -
02.08.2020 21:00:00 - - - - - - - -
02.08.2020 20:00:00 30,4 21,5 18 10 WSW 1008,1 20 60
02.08.2020 19:00:00 31,0 20,0 16 9 W - 10 -
02.08.2020 18:00:00 32,0 19,0 16 9 W - 10 -
02.08.2020 17:00:00 33,0 20,2 21 11 WSW 1008,7 20 60
02.08.2020 16:00:00 34,0 22,0 18 10 WSW - 10 -
02.08.2020 15:00:00 34,0 23,0 18 10 WSW - 10 -
02.08.2020 14:00:00 33,6 21,7 15 8 SW 1009,6 20 60
02.08.2020 13:00:00 33,0 18,0 15 8 W - 10 -
02.08.2020 12:00:00 32,0 18,0 11 6 WSW - 10 -
02.08.2020 11:00:00 30,4 17,8 9 5 WSW 1010,0 20 60
02.08.2020 10:00:00 27,0 20,0 16 9 NE - 10 -
02.08.2020 09:00:00 26,0 21,0 16 9 NE - 10 -
02.08.2020 08:00:00 23,0 19,4 16 9 NE 1010,3 20 60
02.08.2020 07:00:00 22,0 19,0 13 7 NE - 10 -
02.08.2020 06:00:00 - - - - - - - -
02.08.2020 05:00:00 - - - - - - - -
02.08.2020 04:00:00 - - - - - - - -
02.08.2020 03:00:00 - - - - - - - -
02.08.2020 02:00:00 - - - - - - - -
02.08.2020 01:00:00 - - - - - - - -
02.08.2020 00:00:00 - - - - - - - -
01.08.2020 23:00:00 - - - - - - - -
01.08.2020 22:00:00 - - - - - - - -
01.08.2020 21:00:00 - - - - - - - -
01.08.2020 20:00:00 33,8 16,2 15 8 SW 1009,5 25 42
01.08.2020 19:00:00 35,0 15,0 18 10 SW - 10 -
01.08.2020 18:00:00 36,0 15,0 22 12 SW - 10 -
01.08.2020 17:00:00 36,8 15,3 26 14 SW 1010,2 25 60
01.08.2020 16:00:00 36,0 15,0 22 12 SW - 10 -
01.08.2020 15:00:00 36,0 15,0 15 8 W - 10 -
01.08.2020 14:00:00 35,4 13,5 13 7 W 1011,8 25 60
01.08.2020 13:00:00 35,0 15,0 15 8 WSW - 10 -
01.08.2020 12:00:00 33,0 16,0 11 6 WSW - 10 -
01.08.2020 11:00:00 31,8 15,7 5 3 NW 1013,0 20 60
01.08.2020 10:00:00 29,0 18,0 11 6 ENE - 10 -
01.08.2020 09:00:00 27,0 19,0 11 6 NE - 10 -
01.08.2020 08:00:00 23,6 18,9 9 5 NNE 1013,9 20 60
01.08.2020 07:00:00 21,0 17,0 5 3 N - 10 -
01.08.2020 06:00:00 - - - - - - - -
01.08.2020 05:00:00 - - - - - - - -
01.08.2020 04:00:00 - - - - - - - -
01.08.2020 03:00:00 - - - - - - - -

tt = temperature
td = dewpoint
ff = wind speed
dd = wind direction
ppp = reduced air pressure
vv = visibility
sd = sunshine duration

Next stations